WetterOnline ( http://www.wetteronline.de )

Wetter aktuell Warburg

Aktuelles Wetter: Warburg (237m)

6-stündlich | Neueste Meldungen
Ortszeit Temperatur Wetter
Mo, 28.05. 2:00 16.1° C bedeckt
So, 27.05. 20:00 20.7° C wolkig
So, 27.05. 14:00 25.9° C wolkig
So, 27.05. 8:00 15.8° C leicht bewölkt
So, 27.05. 2:00 15.9° C fast wolkenlos
Sa, 26.05. 20:00 23.0° C leicht bewölkt
Sa, 26.05. 14:00 25.6° C wolkenlos
Sa, 26.05. 8:00 16.1° C leicht bewölkt
Ortszeit Temperatur Wetter
Mo, 28.05. 7:00 15.0° C bedeckt
Mo, 28.05. 6:50 15.0° C bedeckt
Mo, 28.05. 6:40 15.0° C bedeckt
Mo, 28.05. 6:30 14.4° C bewölkt
Mo, 28.05. 6:20 14.4° C bewölkt
Mo, 28.05. 6:10 14.5° C wolkig
Mo, 28.05. 6:00 14.1° C wolkig
Mo, 28.05. 5:30 13.8° C Nebel
Mo, 28.05. 5:00 13.9° C leicht bewölkt
Mo, 28.05. 4:30 14.6° C wolkig
Mo, 28.05. 4:00 14.3° C wolkig
Ortszeit Relative Feuchte Sichtweite
Mo, 28.05. 2:00 95% 6 km
So, 27.05. 20:00 77% 20 km
So, 27.05. 14:00 48% 22 km
So, 27.05. 8:00 77% 14 km
So, 27.05. 2:00 77% 20 km
Sa, 26.05. 20:00 60% 35 km
Sa, 26.05. 14:00 38% 15 km
Sa, 26.05. 8:00 89% 5.0 km
Ortszeit Relative Feuchte Sichtweite
Mo, 28.05. 7:00 97% 4.8 km
Mo, 28.05. 6:50 97% -
Mo, 28.05. 6:40 98% -
Mo, 28.05. 6:30 99% 1.4 km
Mo, 28.05. 6:20 99% -
Mo, 28.05. 6:10 100% -
Mo, 28.05. 6:00 100% 2.7 km
Mo, 28.05. 5:30 100% 100 m
Mo, 28.05. 5:00 100% 2.5 km
Mo, 28.05. 4:30 100% 5.0 km
Mo, 28.05. 4:00 99% 3.2 km
Ortszeit Niederschlagsmenge Niederschlagsart
Mo, 28.05. 2:00 0.0 l/m2 in 6 Std. -
So, 27.05. 20:00 0.1 l/m2 in 12 Std. Regen
So, 27.05. 14:00 0.0 l/m2 in 6 Std. -
So, 27.05. 8:00 0.0 l/m2 in 12 Std. -
So, 27.05. 2:00 0.0 l/m2 in 6 Std. -
Sa, 26.05. 20:00 0.0 l/m2 in 12 Std. -
Sa, 26.05. 14:00 0.0 l/m2 in 6 Std. -
Sa, 26.05. 8:00 0.0 l/m2 in 12 Std. -
Ortszeit Niederschlagsmenge Niederschlagsart
Mo, 28.05. 7:00 0.0 l/m2 in 1 Std. -
Mo, 28.05. 6:50 keine Meldung -
Mo, 28.05. 6:40 keine Meldung -
Mo, 28.05. 6:30 0.0 l/m2 in 1 Std. -
Mo, 28.05. 6:20 keine Meldung -
Mo, 28.05. 6:10 keine Meldung -
Mo, 28.05. 6:00 0.0 l/m2 in 1 Std. -
Mo, 28.05. 5:30 0.0 l/m2 in 1 Std. -
Mo, 28.05. 5:00 0.0 l/m2 in 1 Std. -
Mo, 28.05. 4:30 0.0 l/m2 in 1 Std. -
Mo, 28.05. 4:00 0.0 l/m2 in 1 Std. -
Ortszeit Stärke Spitze Richtung
km/h Bft. km/h Grad Sektor
Mo, 28.05. 2:00 6 1 19 40° NO
So, 27.05. 20:00 7 2 25 40° NO
So, 27.05. 14:00 15 3 24 50° NO
So, 27.05. 8:00 4 1 11 330° NW
So, 27.05. 2:00 9 2 17 30° NO
Sa, 26.05. 20:00 11 2 22 60° NO
Sa, 26.05. 14:00 13 3 28 80° O
Sa, 26.05. 8:00 4 1 14 240° SW
Ortszeit Stärke Spitze Richtung
km/h Bft. km/h Grad Sektor
Mo, 28.05. 7:00 4 1 7 320° NW
Mo, 28.05. 6:50 4 1 - 320° NW
Mo, 28.05. 6:40 4 1 - 290° W
Mo, 28.05. 6:30 2 1 7 100° O
Mo, 28.05. 6:20 2 1 - 100° O
Mo, 28.05. 6:10 4 1 - 340° N
Mo, 28.05. 6:00 6 1 7 280° W
Mo, 28.05. 5:30 0 0 4 - -
Mo, 28.05. 5:00 4 1 7 10° N
Mo, 28.05. 4:30 6 1 7 350° N
Mo, 28.05. 4:00 4 1 7 70° O
Ortszeit Untergrenze Bedeckung Gattung
total tief tief mittel hoch
Mo, 28.05. 2:00 3000 m 8/8 8/8 - - -
So, 27.05. 20:00 3600 m 8/8 3/8 - - -
So, 27.05. 14:00 1500 m 7/8 3/8 - - -
So, 27.05. 8:00 2400 m 2/8 1/8 - - -
So, 27.05. 2:00 3000 m 1/8 1/8 - - -
Sa, 26.05. 20:00 9000 m 5/8 0/8 - - -
Sa, 26.05. 14:00 - 0/8 0/8 - - -
Sa, 26.05. 8:00 8400 m 8/8 0/8 - - -
Ortszeit Bedeckungsgrad in Achtel und Wolkenuntergrenze
Mo, 28.05. 7:00 8(3300m)
Mo, 28.05. 6:50 8(3300m)
Mo, 28.05. 6:40 8(3000m)
Mo, 28.05. 6:30 7(3000m) 8(8700m)
Mo, 28.05. 6:20 7(3000m) 8(8700m)
Mo, 28.05. 6:10 3(2700m) 7(3300m) 8(8700m)
Mo, 28.05. 6:00 3(2700m) 8(9000m) 8(9000m)
Mo, 28.05. 5:30 2(3900m) 8(9000m) 8(9000m)
Mo, 28.05. 5:00 1(8700m) 3(9000m)
Mo, 28.05. 4:30 2(8100m) 8(8700m) 8(9000m)
Mo, 28.05. 4:00 8(8400m) 8(9000m) 8(9000m)
Ortszeit Luftdruck NN (hPa) Tendenz (hPa in 3 Std.)
Mo, 28.05. 2:00 1019 - 0,3
So, 27.05. 20:00 1018 + 0,1
So, 27.05. 14:00 1018 - 1,3
So, 27.05. 8:00 1020 0,0
So, 27.05. 2:00 1021 - 0,1
Sa, 26.05. 20:00 1020 - 0,1
Sa, 26.05. 14:00 1021 - 0,2
Sa, 26.05. 8:00 1021 + 0,9
Ortszeit Luftdruck NN (hPa) Tendenz (hPa in 3 Std.)
Mo, 28.05. 7:00 1019 + 0,6
Mo, 28.05. 6:50 1019 keine Meldung
Mo, 28.05. 6:40 1019 keine Meldung
Mo, 28.05. 6:30 1019 + 0,5
Mo, 28.05. 6:20 1019 keine Meldung
Mo, 28.05. 6:10 1019 keine Meldung
Mo, 28.05. 6:00 1019 + 0,3
Mo, 28.05. 5:30 1019 - 0,1
Mo, 28.05. 5:00 1018 - 0,3
Mo, 28.05. 4:30 1018 - 0,4
Mo, 28.05. 4:00 1019 - 0,2
Ortszeit Schneehöhe (cm)
Mo, 28.05. 2:00 -
So, 27.05. 20:00 -
So, 27.05. 14:00 -
So, 27.05. 8:00 -
So, 27.05. 2:00 -
Sa, 26.05. 20:00 -
Sa, 26.05. 14:00 -
Sa, 26.05. 8:00 -
Ortszeit Schneehöhe (cm)
Mo, 28.05. 7:00 -
Mo, 28.05. 6:50 -
Mo, 28.05. 6:40 -
Mo, 28.05. 6:30 -
Mo, 28.05. 6:20 -
Mo, 28.05. 6:10 -
Mo, 28.05. 6:00 -
Mo, 28.05. 5:30 -
Mo, 28.05. 5:00 -
Mo, 28.05. 4:30 -
Mo, 28.05. 4:00 -
Link zu dieser Seite / Seite empfehlen

Das Wetter in ...